Regional Weather Roundup
Issued by NWS

Home | Current Version | Previous Version | Text Only | Print | Product List | Glossary On
Versions: 1 2 3 4 5 6 7 8 9 10 11 12 13 14 15 16 17 18 19 20 21 22 23 24 25 26 27 28 29 30 31 32 33 34 35 36 37 38 39 40 41 42 43 44 45 46 47 48 49 50
000
ASUS42 KKEY 231510
RWRKEY

FLORIDA REGIONAL WEATHER ROUNDUP FOR THE FLORIDA KEYS
NATIONAL WEATHER SERVICE KEY WEST FLORIDA
1000 AM EST THU NOV 23 2017

...SOUTH FLORIDA AND THE KEYS...

CITY           SKY/WX    TMP DP  RH WIND       PRES   REMARKS
FORT MYERS     PTSUNNY   78  71  79 S7        29.90R
SW REGIONAL AP CLOUDY    77  71  82 S9        29.91R
NAPLES         PTSUNNY   79  70  74 S15       29.91R
MIAMI          PTSUNNY   82  72  71 SE14      29.92R
WEST KENDALL   MOSUNNY   80  70  71 S10       29.91S
HOMESTEAD      PTSUNNY   80  75  85 SE10      29.91S
MARATHON       MOSUNNY   82  72  71 S9G17     29.91R
KEY WEST INTL  LGT RAIN  79  73  82 S9        29.91S

...INTERNATIONAL WEATHER...

CITY           SKY/WX    TMP DP  RH WIND       PRES   REMARKS
NASSAU BAHAMAS NOT AVBL
CANCUN MEXICO  MOSUNNY   75  70  83 SW6       29.96R
COZUMEL MEXICO MOSUNNY   77  72  83 W6        29.94S

ADJACENT COASTAL WATERS...

STATION/POSITION TIME  SKY/WX   TEMP    WIND        PRES    WAVE
                                AIR SEA DIR/SP/G            HT/PER
                 (UTC)          (F)     (DEG/KT/KT) (MB)    (FT/S)
PULASKI SHOAL LI 1500            79     210/ 13/ 14 1012.4R
SAND KEY         1450            79                 1013.2F
LONG KEY         NOT AVBL
MOLASSES REEF    1500            79 80  160/ 14/ 15 1013.3R
FOWEY ROCKS      1500            78 80  140/ 19/ 20 1013.6R
Buoy 42097       1430               79                N/A     4/ 4

$$



USA.gov is the U.S. government's official web portal to all federal, state and local government web resources and services.